Погода Петропавловск-Камч.

Погода Петропавловск-Камч. : погода сейчас, прогноз погоды и архив. Всё, что Вы хотите узнать о погоде Петропавловск-Камч.!

Хотите узнать прогноз погоды Петропавловск-Камч.? Тогда Вам сюда: Погода Петропавловск-Камч.

Поиск расширенной информации на нашем сайте:

Другие новости

Новости СМИ2

Главная страница сайта

Новости сайта

03.07.2017

Напоминаем, что на нашем специализированном сайте Метеоцентр.Азия вы можете получить высокодетализированные автоматические прогнозы погоды по пунктам России, СНГ и мира в авиационном формате (включающие направление и скорость ветра, видимость, явления погоды, количество и форму облачности, нижнюю и верхнюю границу облачности).


Погода Петропавловск-Камч. - сегодня

Время (UTC), дата Ветер
(°,м/с) 
Видим.   Явления Облачность Т
(°С)
Тd
(°С)
f(%) Тe
(°С)
Pmin
(гПа)
dP
(гПа)
Po
(мм)
O2
(г/м3)
Тmin Tmax R s Состояние
почвы
06 23.07.17 320 (СЗ) 20000 м    9/5 1000 м верхняя 
[Sc|Ci fib]
+22.8 +13.6 56 +29  1008.2  0.4  754  278           
09 23.07.17 350 (С) 20000 м    3/0 верхняя 
[Ci fib]
+20.1 +12.7 62 +25  1009.6  1.3  755  281    +25.9       
12 23.07.17 350 (С) 4{11}  20000 м    4/0 средняя, верхняя 
[Ac trans|Ci fib]
+18.6 +11.1 62 +21  1010.7  1.1  756  283           
15 23.07.17 010 (С) 20000 м    1/0 средняя 
[Ac trans]
+16.3 +10.4 68 +19  1010.8  0.1  756  286           
18 23.07.17 330 (СЗ) 20000 м    10/1 600 м средняя, верхняя 
[Sc|Ac trans|Ci fib]
+14.4 +11.7 84 +18  1011.3  0.4  756  287           
21 23.07.17 тихо ()   20000 м    9/1 1000 м средняя, верхняя 
[Sc|Ac As|Ci fib]
+15 +11.5 80 +18  1012.2  0.9  757  287  +13.9         
00 24.07.17 200 (Ю) 20000 м    10/8 1000 м средняя, верхняя 
[Sc|Ac As|Ci fib]
+19.2 +13.1 68 +26  1011.7  -0.5  757  282           
03 24.07.17 150 (ЮВ) 4{10}  20000 м    10/8 600 м средняя, верхняя 
[Sc|Ac As|Ci fib]
+19.3 +13.5 69 +26  1011.8  0.2  757  282           
06 24.07.17 150 (ЮВ) 10 км  ливневой дождь  10/10 300 м кучево-дожд. 
[Cb cap]
+15.4 +13.1 86 +21  1012.4  0.6  757  286           
09 24.07.17 140 (ЮВ) 20000 м  слаб. ливневой дождь  10/10 300 м кучево-дожд. 
[Cb cap]
+14.5 +12.9 90 +20  1014.5  759  288    +21.4  0.7     
12 24.07.17 140 (ЮВ) 10 км  слаб. ливневой дождь  10/10 300 м кучево-дожд. 
[Cb cap]
+13.4 +12 91 +17  1015.1  0.6  759  289           
18 24.07.17 120 (ЮВ) 4{12}  10 км  слаб. ливневой дождь  10/10 200 м кучево-дожд. 
[Cb cap]
+12 +10.8 92 +13  1015.2  0.3  759  291           
21 24.07.17 120 (ЮВ) 2{11}  4000 м  туман на расстоянии{ливн. осадки}  10/10 200 м 
[St]
+12.3 +11.3 94 +16  1015.4  0.2  759  291  +12       
00 25.07.17 120 (ЮВ) 4000 м  слаб. ливневой дождь{морось}  10/10 200 м кучево-дожд. 
[Cb cap]
+12.1 +11.1 94 +14  1015.7  0.3  760  291  +11.9         
06 25.07.17 130 (ЮВ) 3{11}  10 км  слаб. ливневой дождь  10/10 200 м кучево-дожд. 
[Cb cap]
+12 +10.9 93 +14  1014.6  -0.1  759  291           
09 25.07.17 120 (ЮВ) 4000 м  слаб. ливневой дождь  10/10 300 м кучево-дожд. 
[Cb cap]
+12.2 +10.8 91 +13  1014.8  0.2  759  291    +12.6  15     
12 25.07.17 130 (ЮВ) 3{10}  10 км  слаб. ливневой дождь  10/10 300 м кучево-дожд. 
[Cb cap]
+11.6 +10.4 92 +12  1014.9  -0.1  759  291           
18 25.07.17 130 (ЮВ) 5{11}  10 км  слаб. ливневой дождь  10/10 300 м кучево-дожд. 
[Cb cap]
+11.6 +10.4 92 +12  1014.2  0.3  758  291           
21 25.07.17 130 (ЮВ) 5-10{10}  4000 м  ливневой дождь  10/10 200 м кучево-дожд. 
[Cb cap]
+11.8 +10.7 93 +13  1014.3  0.1  759  291  +11.5       
00 26.07.17 120 (ЮВ) 3{10}  4000 м  слаб. ливневой дождь  10/10 200 м кучево-дожд. 
[Cb cap]
+12.3 +10.9 91 +14  1014.3  759  290           
06 26.07.17 110 (В) 3{10}  4000 м  слаб. ливневой дождь  10/10 200 м кучево-дожд. 
[Cb cap]
+12.3 +10.8 91 +14  1012.3  -1.3  757  290           
12 26.07.17 тихо ()   10 км  слаб. ливневой дождь  10/10 200 м кучево-дожд. 
[Cb cap]
+11.6 +10.7 94 +14  1011.4  -0.6  756  290           
15 26.07.17 040 (СВ) 10 км  {ливн. осадки}  10/10 200 м 
[St]
+11.7 +10.8 94 +15  1011.3  0.1  756  290           
18 26.07.17 120 (ЮВ) 20000 м  {ливн. осадки}  10/10 200 м 
[St]
+11.8 +10.8 94 +15  1011.3  756  290           
21 26.07.17 350 (С) 10 км  туман на расстоянии  9/9 200 м 
[Sc diur, vesp]
+12.9 +11.9 94 +18  1012.5  1.2  757  289  +11.3       
Время (UTC), дата Ветер
(°,м/с) 
Видим.   Явления Облачность Т
(°С)
Тd
(°С)
f(%) Тe
(°С)
Pmin
(гПа)
dP
(гПа)
Po
(мм)
O2
(г/м3)
Тmin Tmax R s Состояние
почвы

Для получения пояснительной информации подведите курсор к названию столбца.

ПОГОДА Петропавловск-Камч. - архив

Всё, что Вы хотите узнать о погоде Петропавловск-Камч. - удобно и подробно!

Выберите нужную дату (начиная с 1 января 2015* года) и нажмите кнопку "Найти".
Будут отображены архивные сводки погоды по пункту Петропавловск-Камч., начиная с указанной даты.


Отображать данные в формате CSV (для использования в таблицах Excel)


Внимание! Наш архив погоды предназначен исключительно для личного некоммерческого использования в познавательных целях. Если Вам необходимы официальные справки о состоянии погоды (для производственных, юридических, коммерческих и т.п. целей), обращайтесь в органы Росгидромета.

*Примечание: данная дата относится к архиву по метеостанциям СССР (Россия, СНГ, Балтия).
Архив по метеостанциям Зарубежной Европы и Азии (кроме Китая) хранится 10 дней, по другим регионам земного шара (Китай, Африка, Америка, Австралия, Океания) - 1 день.

Петропавловск-Камч. - район местоположения метеостанции


Название, широта, долгота, высота метеостанции:
Петропавловск-Камч. (обсерватория) 53°ш. 158.6°д. 24 м над ур. моря [Российская Федерация]

Дополнительная информация

В oтличие oт бoльшинства пoгoдных сайтoв мы публикуем пoдрoбную метеoинфoрмацию в детальнoм прoфессиoнальнoм фoрмате.

Характеристики температуры и влажнoсти вoздуха измеряются на высoте 2 м в тени вдали oт зданий и деревьев.
Скoрoсть ветра измеряется на высoте 10 м (на урoвне рoста челoвека скoрoсть ветра ниже в 1.5-2 раза). Если метеoстанция нахoдится в гoрoде или в лесу, тo скoрoсть ветра занижена на 2-4 м/с пo сравнению с oткрытым местoм. Скoрoсть ветра над акватoриями крупных рек и oзёр, а также на вершинах хoлмoв на 2-5 м/с выше, чем в oбычных услoвиях.
Атмoсфернoе давление в разных тoчках местнoсти мoжет значительнo oтличаться oт давления на метеoстанции, в зависимoсти oт услoвий рельефа (при пoдъёме на 10 м давление пoнижается примернo на 1 мм рт.ст.).